Regional Weather Roundup
Issued by NWS

Home | Current Version | Previous Version | Graphics & Text | Print | Product List | Glossary On
Versions: 1 2 3 4 5 6 7 8 9 10 11 12 13 14 15 16 17 18 19 20 21 22 23 24 25 26 27 28 29 30 31 32 33 34 35 36 37 38 39 40 41 42 43 44 45 46 47 48 49 50
000
ASUS43 KDMX 230906
RWRIA

WEATHER ROUNDUP FOR IOWA
NATIONAL WEATHER SERVICE DES MOINES IA
400 AM CDT WED AUG 23 2017

NOTE: "FAIR" INDICATES FEW OR NO CLOUDS BELOW 12,000 FEET WITH NO
SIGNIFICANT WEATHER AND/OR OBSTRUCTIONS TO VISIBILITY.

* - THESE STATIONS ARE NOT NWS STATIONS...THUS NOT UNDER NWS
QUALITY CONTROL.  THEY ALSO DO NOT REPORT WEATHER SUCH
AS PRECIPITATION OR FOG.

IAZ001>003-012>014-020>022-031>034-043>046-231000-
   NORTHWEST IOWA

CITY           SKY/WX    TMP DP  RH WIND       PRES   REMARKS
CARROLL *      CLEAR     54  54 100 CALM      30.15F
CHEROKEE *     FOG       51  51 100 CALM      30.15F VSB 3/4
DENISON *      CLEAR     52  50  93 E6        30.17F
LE MARS *      PTCLDY   106 N/A N/A CALM      30.15S FOG
ORANGE CITY *  PTCLDY    57  52  82 CALM      30.16S
SHELDON *      PTCLDY    46  46 100 CALM      30.14S
SIOUX CITY     PTCLDY    54  54 100 CALM      30.16S
SPENCER        CLEAR     50  48  93 CALM      30.15S
STORM LAKE *   CLEAR     54  50  87 W7        30.15F
$$

IAZ055>058-069>071-079>083-090>094-231000-
   SOUTHWEST IOWA

CITY           SKY/WX    TMP DP  RH WIND       PRES   REMARKS
ATLANTIC *     CLEAR     52  52 100 CALM      30.16F
AUDUBON *      CLEAR     50  46  87 CALM      30.17S
CLARINDA *     FOG       52  52 100 CALM      30.19S VSB 1/4
COUNCIL BLFS * CLEAR     54  54 100 CALM      30.16S
CRESTON *      CLEAR     57  52  82 NW5       30.18S
HARLAN  *      CLEAR     50  50 100 CALM      30.20S
LAMONI         CLEAR     56  51  84 NW5       30.16S
RED OAK *      PTCLDY    54  54 100 CALM      30.17S FOG
SHENANDOAH *   CLEAR     52  52 100 CALM      30.18S
$$

IAZ047>049-059>061-072>074-084-231000-
   CENTRAL IOWA

CITY           SKY/WX    TMP DP  RH WIND       PRES   REMARKS
AMES           CLEAR     52  52 100 W3        30.13S
ANKENY *       CLEAR     55  54  94 W3        30.15S
BOONE *        CLEAR     55  52  88 W5        30.13F
CHARITON *     CLEAR     54  52  94 W5        30.15S
DES MOINES     CLEAR     57  53  86 W3        30.14S
GRINNELL*      CLEAR     52  49  92 CALM      30.14S
KNOXVILLE *    CLEAR     55  52  88 W7        30.13S
MARSHALLTOWN   CLEAR     51  50  96 W6        30.12S
NEWTON *       CLEAR     54  52  94 W6        30.14S
PELLA *        CLEAR     54  52  94 CALM      30.14F
PERRY *          N/A     52  51  97 W7        30.15F
$$

IAZ004>006-015-016-023>025-035-036-231000-
   NORTH CENTRAL IOWA

CITY           SKY/WX    TMP DP  RH WIND       PRES   REMARKS
ALGONA *       CLEAR     52  52 100 W6        30.14S
CLARION *      CLEAR     48  48 100 CALM      30.14S
ESTHERVILLE    CLEAR     50  50 100 SW7       30.13S
FORT DODGE *   CLEAR     52  46  82 W3        30.15S
MASON CITY     CLEAR     52  48  86 W9        30.13S
FOREST CITY *    N/A     50  48  93 CALM      30.13S
WEBSTER CITY * CLEAR     52  50  93 W8        30.12S
IOWA FALLS *     N/A     51  49  93 W3        30.14S
$$

IAZ007>011-017>019-026>030-037>042-050>054-066-231000-
   NORTHEAST IOWA

CITY           SKY/WX    TMP DP  RH WIND       PRES   REMARKS
CEDAR RAPIDS   CLEAR     51  50  96 NW5       30.10S
CHARLES CITY * CLEAR     52  52 100 W7        30.11S
CLINTON *      CLEAR     51  50  96 W7        30.08S
DECORAH *      CLEAR     54  50  87 VRB5      30.07S
DUBUQUE        CLEAR     51  49  92 W5        30.08S
MONTICELLO *   CLEAR     50  50 100 CALM      30.08F
OELWEIN *      CLEAR     50  50 100 W5        30.11S
WATERLOO       CLEAR     51  49  92 CALM      30.10S
$$

IAZ064-065-067-068-078-231000-
   EAST CENTRAL IOWA

CITY           SKY/WX    TMP DP  RH WIND       PRES   REMARKS
DAVENPORT      CLEAR     52  50  93 W6        30.10S
IOWA CITY      CLEAR     54  51  90 CALM      30.11S
MT. PLEASANT * CLEAR     52  52 100 W5        30.12S
MUSCATINE *    CLEAR     55  52  88 NW8       30.10S
QUAD CITIES    CLEAR     57  51  80 W5        30.08S
$$

IAZ062-063-075>077-085>089-095>099-231000-
   SOUTHEAST IOWA

CITY           SKY/WX    TMP DP  RH WIND       PRES   REMARKS
BURLINGTON     CLEAR     56  53  90 NW7       30.10S
FAIRFIELD *    CLEAR     52  50  93 W6        30.12S
FORT MADISON * CLEAR     55  54  94 W3        30.12S
KEOKUK *       CLEAR     55  54  94 NW3       30.11S
OSKALOOSA *      N/A     52  51  97 W6        30.13S
CENTERVILLE *    N/A     54  52  94 CALM      30.17R
OTTUMWA        CLEAR     54  52  93 W6        30.13S
WASHINGTON *   CLEAR     55  52  88 W6        30.12S
$$

ABBREVIATIONS USED IN REMARKS
   TC - TEMPERATURES IN CELSIUS
  WCI - WIND CHILL INDEX
   HX - HEAT INDEX
  VSB - VISIBILITY
$$




USA.gov is the U.S. government's official web portal to all federal, state and local government web resources and services.